Back to catalog

COSMOS 397 DEB

AliveLEO
NORAD 5187·DEBRIS·🇷🇺 Russia

Launched Feb 25, 1971 from Baikonur Cosmodrome

Loading…

Next Passes (next 24 hours)

TLE

FreshSource: Space-Track

Epoch: Sep 14, 2026, 05:26 UTC

1 05187U 71015AM  26257.22673507  .00000991  00000-0  29599-3 0  9995
2 05187  65.6479 350.0570 0575518  46.9100 317.8662 13.79970556684307

Track COSMOS 397 DEB in real time with AllMySat

Download on the App Store